GW1985 Weather Reports


time (UTC)temp
C
wind
direction
speed
KPH
gust
KPH
rain 1hr
cm
rain 24hr
cm
rain mn
cm
humidity
%
barometer
mb
20260906191624 26 182 0.0 1.6 0.00 0.00 0.00 78 1020.2
20260906191123 26 138 4.8 8.0 0.00 0.00 0.00 78 1020.1
20260906190623 26 145 4.8 4.8 0.00 0.00 0.00 78 1020.1
20260906190118 26 138 1.6 1.6 0.00 0.00 0.00 79 1020.2
20260906185616 26 194 1.6 1.6 0.00 0.00 0.00 78 1020.1
20260906185116 26 119 1.6 3.2 0.00 0.00 0.00 79 1020.0
20260906184610 26 88 0.0 1.6 0.00 0.00 0.00 78 1020.0
20260906184106 25 147 4.8 9.7 0.00 0.00 0.00 79 1020.1
20260906183602 25 117 4.8 4.8 0.00 0.00 0.00 79 1020.2
20260906183057 25 132 8.0 11.3 0.00 0.00 0.00 79 1020.1
20260906182552 25 136 3.2 3.2 0.00 0.00 0.00 81 1020.2
20260906182049 25 239 3.2 4.8 0.00 0.00 0.00 80 1020.2
20260906181544 25 139 1.6 1.6 0.00 0.00 0.00 81 1020.3
20260906181039 26 118 4.8 8.0 0.00 0.00 0.00 79 1020.3
20260906180534 26 118 12.9 16.1 0.00 0.00 0.00 79 1020.3
20260906180033 25 180 1.6 1.6 0.00 0.00 0.00 81 1020.2
20260906175532 25 136 4.8 8.0 0.00 0.00 0.00 81 1020.5
20260906175032 25 86 4.8 8.0 0.00 0.00 0.00 81 1020.6
20260906174531 25 120 3.2 4.8 0.00 0.00 0.00 81 1020.6
20260906174026 25 108 0.0 1.6 0.00 0.00 0.00 82 1020.5
20260906173521 25 146 1.6 3.2 0.00 0.00 0.00 82 1020.5
20260906173017 24 116 8.0 9.7 0.00 0.00 0.00 83 1020.5
20260906172511 24 222 1.6 3.2 0.00 0.00 0.00 83 1020.5
20260906172006 25 154 3.2 4.8 0.00 0.00 0.00 82 1020.6
20260906171501 24 172 1.6 1.6 0.00 0.00 0.00 83 1020.6
20260906170956 24 213 1.6 1.6 0.00 0.00 0.00 83 1020.5
20260906170453 24 185 0.0 0.0 0.00 0.00 0.00 83 1020.7
20260906165949 24 83 3.2 3.2 0.00 0.00 0.00 83 1020.8
20260906165448 24 177 8.0 9.7 0.00 0.00 0.00 83 1020.9
20260906164943 23 164 4.8 8.0 0.00 0.00 0.00 85 1021.0
20260906164442 23 154 4.8 4.8 0.00 0.00 0.00 85 1021.1
20260906163939 23 177 1.6 1.6 0.00 0.00 0.00 87 1020.9
20260906163434 23 117 1.6 1.6 0.00 0.00 0.00 88 1020.9
20260906162933 22 135 1.6 3.2 0.00 0.00 0.00 88 1020.9
20260906162431 23 172 3.2 3.2 0.00 0.00 0.00 87 1021.0
20260906161926 23 182 4.8 4.8 0.00 0.00 0.00 86 1020.9
20260906161426 23 95 6.4 8.0 0.00 0.00 0.00 86 1020.9
20260906160925 23 189 3.2 4.8 0.00 0.00 0.00 88 1021.0
20260906160418 23 84 4.8 4.8 0.00 0.00 0.00 88 1021.1
20260906155916 23 135 1.6 3.2 0.00 0.00 0.00 88 1021.1
20260906155405 23 118 4.8 4.8 0.00 0.00 0.00 88 1021.2
20260906154901 22 108 8.0 9.7 0.00 0.00 0.00 88 1021.1
20260906154355 23 74 11.3 14.5 0.00 0.00 0.00 88 1021.1
20260906153854 23 147 3.2 3.2 0.00 0.00 0.00 87 1021.2
20260906153353 23 110 8.0 9.7 0.00 0.00 0.00 86 1021.0
20260906152849 23 94 1.6 3.2 0.00 0.00 0.00 86 1021.1
20260906152349 23 144 3.2 3.2 0.00 0.00 0.00 86 1021.0
20260906151848 23 150 3.2 3.2 0.00 0.00 0.00 86 1021.2
20260906151344 23 73 4.8 4.8 0.00 0.00 0.00 86 1021.1
20260906150840 23 141 3.2 3.2 0.00 0.00 0.00 85 1021.3
20260906150335 23 198 1.6 3.2 0.00 0.00 0.00 86 1021.1
20260906145834 23 99 6.4 8.0 0.00 0.00 0.00 86 1021.3
20260906145333 23 126 4.8 8.0 0.00 0.00 0.00 86 1021.1
20260906144828 23 167 4.8 8.0 0.00 0.00 0.00 87 1020.9
20260906144323 23 141 8.0 9.7 0.00 0.00 0.00 87 1020.8
20260906143822 23 118 6.4 9.7 0.00 0.00 0.00 87 1020.6
20260906143319 23 106 4.8 4.8 0.00 0.00 0.00 86 1020.7
20260906142814 23 185 0.0 1.6 0.00 0.00 0.00 86 1021.0
20260906142309 23 124 3.2 3.2 0.00 0.00 0.00 86 1020.9
20260906141809 23 96 6.4 8.0 0.00 0.00 0.00 87 1020.9
20260906141303 23 77 6.4 8.0 0.00 0.00 0.00 86 1020.8
20260906140802 23 109 0.0 1.6 0.00 0.00 0.00 87 1020.8
20260906140257 23 175 3.2 4.8 0.00 0.00 0.00 88 1021.0
20260906135755 23 114 4.8 8.0 0.00 0.00 0.00 88 1021.0
20260906135250 22 125 4.8 8.0 0.00 0.00 0.00 88 1020.9
20260906134746 23 136 1.6 1.6 0.00 0.00 0.00 89 1020.7
20260906134241 23 110 3.2 4.8 0.00 0.00 0.00 88 1020.8
20260906133736 22 122 4.8 4.8 0.00 0.00 0.00 89 1020.7
20260906133231 22 108 6.4 8.0 0.00 0.00 0.00 88 1020.9
20260906132727 22 165 1.6 1.6 0.00 0.00 0.00 89 1020.6
20260906132222 22 106 4.8 8.0 0.00 0.00 0.00 90 1020.5
20260906131717 22 117 0.0 1.6 0.00 0.00 0.00 91 1020.7
20260906131207 22 102 4.8 8.0 0.00 0.00 0.00 92 1020.6
20260906130702 21 148 0.0 0.0 0.00 0.00 0.00 93 1020.5
20260906130157 21 101 1.6 1.6 0.00 0.00 0.00 94 1020.6
20260906125655 21 136 1.6 3.2 0.00 0.00 0.00 95 1020.5
20260906125154 21 75 1.6 3.2 0.00 0.00 0.00 96 1020.5
20260906124649 21 128 0.0 1.6 0.00 0.00 0.00 97 1020.6
20260906124144 20 150 0.0 0.0 0.00 0.00 0.00 98 1020.6
20260906123643 20 154 0.0 1.6 0.00 0.00 0.00 99 1020.4
20260906123139 20 154 0.0 0.0 0.00 0.00 0.00 99 1020.5
20260906122638 20 110 0.0 0.0 0.00 0.00 0.00 99 1020.5
20260906122134 20 146 1.6 1.6 0.00 0.00 0.00 99 1020.6
20260906121630 20 136 0.0 0.0 0.00 0.00 0.00 99 1020.5
20260906121126 20 151 0.0 0.0 0.00 0.00 0.00 99 1020.4
20260906120621 20 164 0.0 0.0 0.00 0.00 0.00 99 1020.4
20260906120119 20 159 0.0 0.0 0.00 0.00 0.00 99 1020.2
20260906115619 20 153 0.0 0.0 0.00 0.00 0.00 99 1020.2
20260906115114 20 158 0.0 0.0 0.00 0.00 0.00 99 1020.4
20260906114608 20 157 1.6 3.2 0.00 0.00 0.00 99 1020.3
20260906114103 20 123 0.0 1.6 0.00 0.00 0.00 99 1020.3
20260906113603 20 154 0.0 0.0 0.00 0.00 0.00 99 1020.3
20260906113057 20 150 0.0 0.0 0.00 0.00 0.00 99 1020.2
20260906112552 20 157 0.0 0.0 0.00 0.00 0.00 99 1020.3
20260906112048 20 157 0.0 0.0 0.00 0.00 0.00 99 1020.0
20260906111548 20 157 0.0 0.0 0.00 0.00 0.00 98 1020.1
20260906111043 20 150 0.0 0.0 0.00 0.00 0.00 98 1020.0
20260906110543 20 150 0.0 0.0 0.00 0.00 0.00 98 1020.0
20260906110042 20 164 0.0 0.0 0.00 0.00 0.00 98 1020.1
20260906105537 20 152 0.0 0.0 0.00 0.00 0.00 98 1019.9
20260906105033 20 148 0.0 0.0 0.00 0.00 0.00 98 1019.9
20260906104532 20 122 1.6 1.6 0.00 0.00 0.00 98 1019.7
20260906104026 20 157 0.0 0.0 0.00 0.00 0.00 98 1019.9
20260906103525 20 152 0.0 0.0 0.00 0.00 0.00 98 1019.9
20260906103020 20 130 0.0 0.0 0.00 0.00 0.00 97 1019.9
20260906102520 20 136 0.0 0.0 0.00 0.00 0.00 97 1019.7
20260906102015 20 143 0.0 0.0 0.00 0.00 0.00 97 1020.2
20260906101509 20 153 0.0 0.0 0.00 0.00 0.00 97 1019.8
20260906101004 20 145 0.0 0.0 0.00 0.00 0.00 97 1019.8
20260906100500 20 106 1.6 1.6 0.00 0.00 0.00 96 1019.8
20260906095954 20 133 0.0 1.6 0.00 0.00 0.00 96 1019.7
20260906095449 20 167 0.0 0.0 0.00 0.00 0.00 96 1019.6
20260906094944 20 175 0.0 0.0 0.00 0.00 0.00 95 1019.6
20260906094438 21 175 0.0 0.0 0.00 0.00 0.00 95 1019.5
20260906093934 21 169 0.0 0.0 0.00 0.00 0.00 95 1019.0
20260906093430 21 131 0.0 1.6 0.00 0.00 0.00 94 1019.0
20260906092930 21 162 0.0 1.6 0.00 0.00 0.00 94 1018.9
20260906092430 21 166 0.0 0.0 0.00 0.00 0.00 94 1019.0
20260906091925 21 177 0.0 0.0 0.00 0.00 0.00 94 1018.9
20260906091421 21 154 1.6 3.2 0.00 0.00 0.00 94 1018.8
20260906090917 21 138 0.0 0.0 0.00 0.00 0.00 94 1019.1
20260906090412 21 147 0.0 0.0 0.00 0.00 0.00 94 1019.1
20260906085906 21 181 1.6 3.2 0.00 0.00 0.00 94 1019.1
20260906085400 21 155 0.0 0.0 0.00 0.00 0.00 93 1019.3
20260906084900 21 136 0.0 0.0 0.00 0.00 0.00 93 1019.1
20260906084400 21 129 0.0 1.6 0.00 0.00 0.00 93 1019.3
20260906083854 21 159 0.0 0.0 0.00 0.00 0.00 93 1019.1
20260906083350 21 155 1.6 1.6 0.00 0.00 0.00 93 1018.9
20260906082849 21 143 0.0 0.0 0.00 0.00 0.00 93 1019.0
20260906082344 21 151 0.0 1.6 0.00 0.00 0.00 93 1018.7
20260906081840 21 120 0.0 1.6 0.00 0.00 0.00 93 1019.0
20260906081336 21 130 0.0 1.6 0.00 0.00 0.00 93 1019.0
20260906080831 21 95 1.6 3.2 0.00 0.00 0.00 93 1019.1
20260906080327 22 110 0.0 1.6 0.00 0.00 0.00 93 1019.0
20260906075822 22 99 3.2 3.2 0.00 0.00 0.00 93 1018.9
20260906075322 22 144 1.6 1.6 0.00 0.00 0.00 93 1019.1
20260906074817 22 128 0.0 0.0 0.00 0.00 0.00 92 1018.7
20260906074317 22 126 1.6 1.6 0.00 0.00 0.00 92 1019.0
20260906073816 22 103 4.8 4.8 0.00 0.00 0.00 92 1018.9
20260906073311 22 124 1.6 3.2 0.00 0.00 0.00 92 1018.9
20260906072807 22 121 1.6 1.6 0.00 0.00 0.00 92 1018.9
20260906072305 22 133 1.6 3.2 0.00 0.00 0.00 91 1019.0
20260906071758 22 86 3.2 3.2 0.00 0.00 0.00 91 1019.3
20260906071258 22 168 0.0 0.0 0.00 0.00 0.00 91 1019.3
20260906070755 22 127 3.2 3.2 0.00 0.00 0.00 91 1019.4
20260906070250 22 154 1.6 3.2 0.00 0.00 0.00 91 1019.5
20260906065750 22 159 1.6 1.6 0.00 0.00 0.00 91 1019.3
20260906065245 22 124 1.6 3.2 0.00 0.00 0.00 91 1019.5
20260906064741 22 124 3.2 3.2 0.00 0.00 0.00 91 1019.5
20260906064236 22 141 0.0 1.6 0.00 0.00 0.00 92 1019.4
20260906063731 22 120 1.6 1.6 0.00 0.00 0.00 92 1019.5
20260906063227 22 128 1.6 1.6 0.00 0.00 0.00 91 1019.4
20260906062722 22 130 0.0 0.0 0.00 0.00 0.00 91 1019.4
20260906062221 22 158 0.0 0.0 0.00 0.00 0.00 91 1019.5
20260906061717 22 150 0.0 0.0 0.00 0.00 0.00 91 1019.5
20260906061213 22 120 1.6 1.6 0.00 0.00 0.00 91 1019.5
20260906060709 22 111 3.2 3.2 0.00 0.00 0.00 91 1019.6
20260906060206 22 90 0.0 1.6 0.00 0.00 0.00 91 1019.6
20260906055702 22 109 1.6 1.6 0.00 0.00 0.00 91 1019.4
20260906055156 22 151 0.0 0.0 0.00 0.00 0.00 91 1019.4
20260906054652 22 118 1.6 1.6 0.00 0.00 0.00 92 1019.5
20260906054146 22 138 0.0 1.6 0.00 0.00 0.00 92 1019.4
20260906053643 22 142 0.0 0.0 0.00 0.00 0.00 92 1019.4
20260906053138 22 164 1.6 1.6 0.00 0.00 0.00 92 1019.5
20260906052633 22 150 0.0 0.0 0.00 0.00 0.00 92 1019.4
20260906052130 22 144 1.6 1.6 0.00 0.00 0.00 92 1019.6
20260906051626 22 145 1.6 1.6 0.00 0.00 0.00 92 1019.4
20260906051126 22 154 0.0 0.0 0.00 0.00 0.00 91 1019.4
20260906050621 22 154 0.0 0.0 0.00 0.00 0.00 91 1019.6
20260906050116 22 137 0.0 0.0 0.00 0.00 0.00 91 1019.6
20260906045614 22 153 0.0 0.0 0.00 0.00 0.00 92 1019.5
20260906045110 22 134 1.6 1.6 0.00 0.00 0.00 92 1019.4
20260906044606 22 159 0.0 0.0 0.00 0.00 0.00 92 1019.7
20260906044101 22 154 0.0 0.0 0.00 0.00 0.00 92 1019.6
20260906043557 22 159 0.0 0.0 0.00 0.00 0.00 92 1019.7
20260906043053 22 155 0.0 0.0 0.00 0.00 0.00 92 1019.8
20260906042551 22 155 0.0 0.0 0.00 0.00 0.00 92 1019.9
20260906042046 22 165 0.0 0.0 0.00 0.00 0.00 91 1019.8
20260906041542 22 158 0.0 0.0 0.00 0.00 0.00 91 1019.9
20260906041037 22 145 0.0 0.0 0.00 0.00 0.00 92 1020.0
20260906040532 22 155 0.0 0.0 0.00 0.00 0.00 91 1019.9
20260906040028 22 149 0.0 1.6 0.00 0.00 0.00 91 1019.9
20260906035523 22 139 0.0 1.6 0.00 0.00 0.00 91 1019.8
20260906035019 22 157 0.0 0.0 0.00 0.00 0.00 91 1019.9
20260906034518 22 168 0.0 0.0 0.00 0.00 0.00 91 1019.9
20260906034014 22 158 0.0 0.0 0.00 0.00 0.00 91 1020.1
20260906033508 22 158 0.0 0.0 0.00 0.00 0.00 91 1020.1
20260906033004 22 158 0.0 0.0 0.00 0.00 0.00 90 1020.0
20260906032500 23 167 0.0 0.0 0.00 0.00 0.00 90 1019.8
20260906031954 23 164 0.0 0.0 0.00 0.00 0.00 89 1019.8
20260906031450 23 153 0.0 0.0 0.00 0.00 0.00 89 1019.9
20260906030945 23 150 0.0 0.0 0.00 0.00 0.00 88 1020.1
20260906030440 23 143 0.0 1.6 0.00 0.00 0.00 88 1019.8
20260906025934 23 127 0.0 1.6 0.00 0.00 0.00 87 1019.8
20260906025428 24 125 1.6 1.6 0.00 0.00 0.00 87 1019.8
20260906024927 24 105 1.6 3.2 0.00 0.00 0.00 86 1019.9
20260906024426 24 135 0.0 1.6 0.00 0.00 0.00 86 1020.1
20260906023922 24 166 0.0 0.0 0.00 0.00 0.00 86 1019.8
20260906023418 24 167 1.6 1.6 0.00 0.00 0.00 85 1020.0
20260906022918 25 195 3.2 3.2 0.00 0.00 0.00 85 1019.7
20260906022413 25 47 1.6 1.6 0.00 0.00 0.00 85 1019.6
20260906021909 25 191 0.0 1.6 0.00 0.00 0.00 84 1019.7
20260906021408 25 190 0.0 1.6 0.00 0.00 0.00 84 1019.4
20260906020903 25 162 0.0 0.0 0.00 0.00 0.00 83 1019.3
20260906020357 25 158 0.0 0.0 0.00 0.00 0.00 83 1019.0
20260906015851 25 119 1.6 3.2 0.00 0.00 0.00 83 1018.8
20260906015350 25 111 6.4 9.7 0.00 0.00 0.00 83 1018.9
20260906014845 25 149 0.0 1.6 0.00 0.00 0.00 83 1018.5
20260906014345 25 92 4.8 9.7 0.00 0.00 0.00 83 1018.4
20260906013841 25 119 3.2 3.2 0.00 0.00 0.00 83 1018.3
20260906013337 25 188 0.0 0.0 0.00 0.00 0.00 81 1017.9
20260906012832 25 127 1.6 1.6 0.00 0.00 0.00 80 1017.9
20260906012327 26 100 1.6 3.2 0.00 0.00 0.00 78 1017.8
20260906011826 26 148 0.0 1.6 0.00 0.00 0.00 77 1017.7
20260906011321 26 156 1.6 3.2 0.00 0.00 0.00 77 1017.6
20260906010818 26 134 3.2 3.2 0.00 0.00 0.00 76 1017.4
20260906010314 25 99 3.2 3.2 0.00 0.00 0.00 76 1017.2
20260906005809 26 129 1.6 3.2 0.00 0.00 0.00 75 1017.2
20260906005307 26 144 1.6 1.6 0.00 0.00 0.00 75 1017.4
20260906004806 26 141 1.6 1.6 0.00 0.00 0.00 74 1017.5
20260906004301 26 159 0.0 0.0 0.00 0.00 0.00 73 1017.4
20260906003756 26 123 1.6 1.6 0.00 0.00 0.00 71 1017.0
20260906003252 27 119 3.2 3.2 0.00 0.00 0.00 71 1017.0
20260906002747 27 109 4.8 4.8 0.00 0.00 0.00 70 1017.2
20260906002247 27 139 1.6 1.6 0.00 0.00 0.00 71 1017.0
20260906001742 27 102 3.2 3.2 0.00 0.00 0.00 71 1016.8
20260906001237 27 121 1.6 3.2 0.00 0.00 0.00 71 1016.7
20260906000733 27 144 1.6 3.2 0.00 0.00 0.00 71 1017.0
20260906000234 27 128 0.0 1.6 0.00 0.00 0.00 70 1017.1
20260905235733 27 100 8.0 11.3 0.00 0.00 0.00 71 1017.2
20260905235227 27 154 0.0 0.0 0.00 0.00 0.00 71 1017.3
20260905234723 28 176 3.2 3.2 0.00 0.00 0.00 70 1017.1
20260905234218 28 130 4.8 4.8 0.00 0.00 0.00 70 1017.1
20260905233713 28 101 1.6 3.2 0.00 0.00 0.00 70 1017.0
20260905233212 28 147 1.6 3.2 0.00 0.00 0.00 69 1016.9
20260905232707 28 119 3.2 3.2 0.00 0.00 0.00 69 1017.0
20260905232203 28 155 4.8 4.8 0.00 0.00 0.00 70 1016.8
20260905231659 28 83 11.3 14.5 0.00 0.00 0.00 69 1016.9
20260905231154 28 77 3.2 3.2 0.00 0.00 0.00 69 1016.8
20260905230650 28 117 3.2 4.8 0.00 0.00 0.00 69 1016.8
20260905230148 29 176 1.6 1.6 0.00 0.00 0.00 69 1016.7
20260905225647 29 158 0.0 1.6 0.00 0.00 0.00 69 1016.5
20260905225142 28 70 3.2 4.8 0.00 0.00 0.00 69 1016.5
20260905224641 29 96 8.0 12.9 0.00 0.00 0.00 69 1016.3
20260905224136 29 86 3.2 4.8 0.00 0.00 0.00 68 1016.5
20260905223633 29 110 6.4 8.0 0.00 0.00 0.00 68 1016.6
20260905223130 29 60 3.2 4.8 0.00 0.00 0.00 67 1016.7
20260905222625 29 161 1.6 3.2 0.00 0.00 0.00 66 1016.6
20260905222120 29 133 1.6 3.2 0.00 0.00 0.00 67 1016.6
20260905221615 29 180 1.6 1.6 0.00 0.00 0.00 66 1016.7
20260905221112 28 143 4.8 4.8 0.00 0.00 0.00 67 1016.6
20260905220607 29 98 8.0 9.7 0.00 0.00 0.00 66 1017.0
20260905220103 29 83 3.2 4.8 0.00 0.00 0.00 66 1017.0
20260905215602 30 174 1.6 1.6 0.00 0.00 0.00 66 1016.7
20260905215058 30 133 4.8 8.0 0.00 0.00 0.00 65 1017.0
20260905214554 30 92 3.2 8.0 0.00 0.00 0.00 64 1016.8
20260905214049 29 125 9.7 12.9 0.00 0.00 0.00 66 1017.0
20260905213544 30 157 4.8 8.0 0.00 0.00 0.00 66 1016.8
20260905213039 29 193 0.0 0.0 0.00 0.00 0.00 68 1017.0
20260905212534 29 8 4.8 4.8 0.00 0.00 0.00 68 1016.9
20260905212034 29 102 3.2 4.8 0.00 0.00 0.00 69 1016.9
20260905211529 28 138 8.0 9.7 0.00 0.00 0.00 70 1016.8
20260905211025 29 145 6.4 9.7 0.00 0.00 0.00 69 1016.7
20260905210520 29 186 3.2 3.2 0.00 0.00 0.00 68 1016.8
20260905210020 29 137 4.8 8.0 0.00 0.00 0.00 69 1017.1
20260905205514 29 29 4.8 9.7 0.00 0.00 0.00 67 1017.0
20260905205013 28 167 1.6 1.6 0.00 0.00 0.00 70 1017.5
20260905204508 29 156 6.4 9.7 0.00 0.00 0.00 68 1017.6
20260905204003 28 78 11.3 14.5 0.00 0.00 0.00 71 1017.7
20260905203458 29 115 8.0 11.3 0.00 0.00 0.00 70 1017.7
20260905202953 28 94 4.8 4.8 0.00 0.00 0.00 71 1017.8
20260905202448 28 133 3.2 4.8 0.00 0.00 0.00 71 1017.8
20260905201944 28 87 6.4 9.7 0.00 0.00 0.00 71 1018.0
20260905201439 29 114 4.8 11.3 0.00 0.00 0.00 70 1018.1
20260905200933 28 159 1.6 3.2 0.00 0.00 0.00 70 1018.3
20260905200429 28 168 3.2 3.2 0.00 0.00 0.00 71 1018.5
20260905195927 28 165 0.0 0.0 0.00 0.00 0.00 71 1018.4
20260905195422 28 170 1.6 1.6 0.00 0.00 0.00 72 1018.6
20260905194918 28 179 3.2 4.8 0.00 0.00 0.00 70 1018.6
20260905194417 27 115 1.6 3.2 0.00 0.00 0.00 70 1018.6
20260905193917 27 104 8.0 9.7 0.00 0.00 0.00 72 1018.9
20260905193412 28 117 4.8 4.8 0.00 0.00 0.00 70 1018.7
20260905192907 28 167 1.6 3.2 0.00 0.00 0.00 71 1018.7
20260905192403 28 190 0.0 1.6 0.00 0.00 0.00 72 1018.7
20260905191857 28 165 0.0 1.6 0.00 0.00 0.00 72 1018.9